Date String (YYYY-MM-DD hh:mm:ss) UTC,Instrument flags,Ambient pressure (hPa),Sample flow (lpm),Bypass flow (lpm),Sample temperature (°C),Ambient temperature (°C),ASC tube jacket temperature (°C),LED temperature (°C),Box temperature (°C),Sample RH (%),Span deviation,Mass concentration (μg/m³),Mass concentration (μg/m³),Mass concentration (μg/m³)
DateTimeUTC,F1_M11,P_M11,Q1_M11,Q2_M11,T1_M11,T2_M11,T3_M11,T4_M11,T5_M11,U1_M11,ZSPAN_M11,X2_M11,X0_M11,X1_M11
2021-12-20 18:00:00,,0826.8,5.01,0.00,25.3,24.4,00.0,34.2,27.1,07.6,0000.0,0000.36,0000.82,0000.24
2021-12-20 18:01:00,,0827.0,4.99,0.00,25.3,24.4,00.0,34.2,27.1,07.6,0000.0,0000.32,0000.62,0000.24
2021-12-20 18:02:00,,0827.0,5.00,0.00,25.3,24.4,00.0,34.2,27.1,07.7,0000.0,0000.31,0000.61,0000.24
2021-12-20 18:03:00,,0826.8,5.00,0.00,25.3,24.4,00.0,34.2,27.1,07.7,0000.0,0000.32,0000.63,0000.24
2021-12-20 18:04:00,,0826.8,5.00,0.00,25.3,24.4,00.0,34.2,27.0,07.7,0000.0,0000.33,0001.06,0000.24
2021-12-20 18:05:00,,0826.7,5.00,0.00,25.3,24.4,00.0,34.2,27.0,07.7,0000.0,0000.33,0001.92,0000.24
2021-12-20 18:06:00,,0826.7,5.01,0.00,25.3,24.4,00.0,34.2,27.0,07.7,0000.0,0000.33,0002.29,0000.24
2021-12-20 18:07:00,,0826.8,4.99,0.00,25.3,24.4,00.0,34.2,27.1,07.8,0000.0,0000.32,0002.16,0000.24
2021-12-20 18:08:00,,0826.7,5.00,0.00,25.3,24.4,00.0,34.2,27.1,07.7,0000.0,0000.32,0002.08,0000.24
2021-12-20 18:09:00,,0826.7,5.00,0.00,25.3,24.3,00.0,34.2,27.1,07.7,0000.0,0000.31,0002.07,0000.24
2021-12-20 18:10:00,,0826.7,4.98,0.00,25.3,24.3,00.0,34.3,27.1,07.7,0000.0,0000.30,0002.06,0000.25
2021-12-20 18:11:00,,0826.7,5.02,0.00,25.3,24.4,00.0,34.3,27.1,07.7,0000.0,0000.32,0002.16,0000.24
2021-12-20 18:12:00,,0826.8,5.00,0.00,25.3,24.3,00.0,34.3,27.0,07.7,0000.0,0000.34,0002.21,0000.25
2021-12-20 18:13:00,,0826.7,5.01,0.00,25.3,24.4,00.0,34.3,27.0,07.6,0000.0,0000.34,0002.21,0000.24
2021-12-20 18:14:00,,0826.8,5.00,0.00,25.3,24.4,00.0,34.3,27.0,07.7,0000.0,0000.35,0002.47,0000.24
2021-12-20 18:15:00,,0826.7,5.00,0.00,25.3,24.4,00.0,34.3,27.0,07.7,0000.0,0000.35,0002.97,0000.24
2021-12-20 18:16:00,,0826.7,5.01,0.00,25.3,24.4,00.0,34.3,27.0,07.8,0000.0,0000.36,0002.03,0000.23
2021-12-20 18:17:00,,0826.7,5.00,0.00,25.3,24.4,00.0,34.3,26.9,07.7,0000.0,0000.36,0001.78,0000.23
2021-12-20 18:18:00,,0826.7,4.99,0.00,25.3,24.3,00.0,34.3,26.9,07.8,0000.0,0000.36,0001.79,0000.24
2021-12-20 18:19:00,,0826.7,5.00,0.00,25.3,24.3,00.0,34.3,26.9,07.8,0000.0,0000.36,0001.78,0000.24
2021-12-20 18:20:00,,0826.6,5.00,0.00,25.3,24.3,00.0,34.3,26.9,07.9,0000.0,0000.36,0001.78,0000.24
2021-12-20 18:21:00,,0826.6,5.00,0.00,25.2,24.3,00.0,34.2,26.9,07.9,0000.0,0000.36,0001.75,0000.24
2021-12-20 18:22:00,,0826.6,4.99,0.00,25.2,24.3,00.0,34.2,26.8,07.9,0000.0,0000.34,0002.10,0000.24
2021-12-20 18:23:00,,0826.6,5.01,0.00,25.2,24.3,00.0,34.2,26.8,07.9,0000.0,0000.32,0002.26,0000.24
2021-12-20 18:24:00,,0826.6,5.00,0.00,25.2,24.3,00.0,34.2,26.8,07.9,0000.0,0000.31,0002.24,0000.24
2021-12-20 18:25:00,,0826.6,5.00,0.00,25.2,24.3,00.0,34.2,26.8,07.9,0000.0,0000.30,0001.97,0000.24
2021-12-20 18:26:00,,0826.5,4.99,0.00,25.2,24.3,00.0,34.2,26.8,07.9,0000.0,0000.30,0001.08,0000.24
2021-12-20 18:27:00,,0826.5,5.00,0.00,25.1,24.3,00.0,34.2,26.8,07.9,0000.0,0000.31,0001.08,0000.24
2021-12-20 18:28:00,,0826.5,4.99,0.00,25.1,24.3,00.0,34.2,26.8,08.0,0000.0,0000.33,0001.12,0000.24
2021-12-20 18:29:00,,0826.5,5.01,0.00,25.1,24.3,00.0,34.2,26.8,07.9,0000.0,0000.33,0001.13,0000.23
2021-12-20 18:30:00,,0826.5,4.98,0.00,25.1,24.3,00.0,34.2,26.8,07.9,0000.0,0000.33,0001.13,0000.23
2021-12-20 18:31:00,,0826.5,5.01,0.00,25.1,24.3,00.0,34.2,26.8,07.9,0000.0,0000.34,0001.18,0000.23
2021-12-20 18:32:00,,0826.5,5.00,0.00,25.1,24.3,00.0,34.2,26.8,08.0,0000.0,0000.34,0001.17,0000.22
2021-12-20 18:33:00,,0826.5,4.99,0.00,25.1,24.3,00.0,34.1,26.7,08.1,0000.0,0000.33,0000.65,0000.22
2021-12-20 18:34:00,,0826.5,5.01,0.00,25.1,24.3,00.0,34.1,26.8,08.1,0000.0,0000.33,0000.50,0000.22
2021-12-20 18:35:00,,0826.4,4.99,0.00,25.1,24.3,00.0,34.1,26.8,08.1,0000.0,0000.33,0000.50,0000.22
2021-12-20 18:36:00,,0826.4,5.00,0.00,25.1,24.3,00.0,34.1,26.7,08.1,0000.0,0000.31,0000.44,0000.22
2021-12-20 18:37:00,,0826.4,5.01,0.00,25.1,24.3,00.0,34.1,26.8,08.1,0000.0,0000.30,0000.44,0000.22
2021-12-20 18:38:00,,0826.3,5.00,0.00,25.1,24.3,00.0,34.1,26.8,08.0,0000.0,0000.29,0000.42,0000.22
2021-12-20 18:39:00,,0826.4,4.99,0.00,25.1,24.3,00.0,34.1,26.8,08.0,0000.0,0000.26,0000.37,0000.21
2021-12-20 18:40:00,,0826.3,5.00,0.00,25.1,24.3,00.0,34.1,26.8,08.0,0000.0,0000.24,0000.33,0000.21
2021-12-20 18:41:00,,0826.3,5.00,0.00,25.1,24.4,00.0,34.1,26.8,08.0,0000.0,0000.24,0000.32,0000.21
2021-12-20 18:42:00,,0826.4,4.99,0.00,25.1,24.4,00.0,34.1,26.8,08.0,0000.0,0000.23,0000.26,0000.21
2021-12-20 18:43:00,,0826.2,5.02,0.00,25.1,24.4,00.0,34.1,26.8,08.0,0000.0,0000.23,0000.27,0000.21
2021-12-20 18:44:00,,0826.2,5.00,0.00,25.1,24.4,00.0,34.1,26.8,08.0,0000.0,0000.24,0000.27,0000.21
2021-12-20 18:45:00,,0826.2,4.99,0.00,25.1,24.4,00.0,34.1,26.8,08.0,0000.0,0000.23,0000.27,0000.21
2021-12-20 18:46:00,,0826.1,5.01,0.00,25.1,24.4,00.0,34.1,26.8,08.0,0000.0,0000.23,0000.27,0000.21
2021-12-20 18:47:00,,0826.2,4.99,0.00,25.1,24.3,00.0,34.1,26.8,07.9,0000.0,0000.24,0000.27,0000.21
2021-12-20 18:48:00,,0826.2,5.00,0.00,25.1,24.3,00.0,34.1,26.8,07.9,0000.0,0000.24,0000.27,0000.21
2021-12-20 18:49:00,,0826.2,5.00,0.00,25.1,24.3,00.0,34.1,26.8,07.9,0000.0,0000.26,0000.32,0000.21
2021-12-20 18:50:00,,0826.2,4.99,0.00,25.1,24.4,00.0,34.1,26.8,07.9,0000.0,0000.27,0000.36,0000.22
2021-12-20 18:51:00,,0826.2,5.02,0.00,25.1,24.4,00.0,34.1,26.8,07.8,0000.0,0000.28,0000.36,0000.22
2021-12-20 18:52:00,,0826.1,4.98,0.00,25.1,24.4,00.0,34.1,26.8,08.0,0000.0,0000.29,0000.38,0000.22
2021-12-20 18:53:00,,0826.2,5.01,0.00,25.1,24.4,00.0,34.1,26.8,08.0,0000.0,0000.28,0000.37,0000.22
2021-12-20 18:54:00,,0826.1,4.99,0.00,25.1,24.4,00.0,34.1,26.8,08.0,0000.0,0000.27,0000.36,0000.22
2021-12-20 18:55:00,,0826.1,5.00,0.00,25.1,24.4,00.0,34.1,26.8,08.0,0000.0,0000.27,0000.44,0000.22
2021-12-20 18:56:00,,0826.0,5.00,0.00,25.1,24.4,00.0,34.1,26.8,07.9,0000.0,0000.27,0000.47,0000.22
2021-12-20 18:57:00,,0826.0,5.01,0.00,25.1,24.4,00.0,34.1,26.8,07.9,0000.0,0000.29,0000.52,0000.22
2021-12-20 18:58:00,,0826.0,5.01,0.00,25.1,24.4,00.0,34.1,26.8,07.9,0000.0,0000.31,0000.57,0000.22
2021-12-20 18:59:00,,0826.0,4.99,0.00,25.2,24.4,00.0,34.1,26.8,07.9,0000.0,0000.32,0000.59,0000.22
